Location: *
(58.7167°N, 26.1833°E)
Time: 10:47:05
(UTC+00:00)

Sich 1 Rocket - Pass Details

Date: 25 August 2019
Orbit: 615 x 653 km, 82.5° (Epoch: 18 September)

Event Time Altitude Azimuth Distance (km) Brightness Sun altitude
Exits shadow 19:20:18 - 180° (S) 2,215 6.0 -12.0°
Reaches altitude 10° 19:20:46 10° 180° (S) 2,027 5.8 -12.0°
Maximum altitude 19:25:13 66° 99° (E) 697 3.6 -12.4°
Drops below altitude 10° 19:29:39 10° 17° (NNE) 2,018 6.6 -12.8°
Sets 19:31:54 0° 15° (NNE) 2,925 7.5 -13.0°
